[Iaude] MPEC N37: 2024 NL [a=1.46,e=0.14,i=25.8,H=21.9]
    mpec at cfa.harvard.edu 
    mpec at cfa.harvard.edu
       
    Thu Jul  4 20:08:29 EDT 2024
    
    
  
M.P.E.C. 2024-N37                                  Issued 2024 July 5, 00:06 UT
     The Minor Planet Electronic Circulars contain information on unusual
         minor planets, routine data on comets and natural satellites,
         and occasional editorial announcements.  They are published
    on behalf of Division F of the International Astronomical Union by the
          Minor Planet Center, Smithsonian Astrophysical Observatory,
                          Cambridge, MA 02138, U.S.A.
			  
             Prepared using the Tamkin Foundation Computer Network
                              MPC at CFA.HARVARD.EDU
            URL https://www.minorplanetcenter.net/    ISSN 1523-6714
                                    2024 NL                                     
Observations:
     K24N00L  C2024 06 02.59725620 49 15.113-34 59 09.53         22.16GVEN037F51
     K24N00L  C2024 06 12.54068320 46 28.828-28 23 20.34         22.54GVEN037F52
     K24N00L  C2024 06 12.55050120 46 28.309-28 22 53.80         22.86GVEN037F52
     K24N00L  C2024 06 12.56029120 46 27.784-28 22 25.73         22.34GVEN037F52
     K24N00L  C2024 06 12.57007820 46 27.290-28 21 59.58         22.57GVEN037F52
     K24N00L  C2024 06 16.52944920 43 03.411-25 07 07.85         21.32GVEN037F51
     K24N00L  C2024 06 16.55019620 43 01.951-25 06 02.76         21.76GVEN037F51
     K24N00L  C2024 06 16.56056220 43 01.197-25 05 30.55         21.92GVEN037F51
     K24N00L  C2024 06 28.48776620 24 46.979-12 50 06.99         20.56GVEN037F51
     K24N00L  C2024 06 28.49948820 24 45.457-12 49 17.51         21.00GVEN037F51
     K24N00L* C2024 07 03.44610020 13 57.555-06 46 55.79         21.03wXEN037F51
     K24N00L  C2024 07 03.45654120 13 55.979-06 46 08.65         20.67wXEN037F51
     K24N00L  C2024 07 03.47826920 13 52.681-06 44 30.36         21.01wXEN037F51
     K24N00L 3C2024 07 04.57342120 11 15.284-05 21 28.37         21.36GVEN037T14
     K24N00L 3C2024 07 04.57440020 11 15.137-05 21 23.88         21.26GVEN037T14
     K24N00L 3C2024 07 04.57537920 11 14.982-05 21 19.38         21.24GVEN037T14
     K24N00L KB2024 07 04.90220 20 10 29.31 -04 56 34.7          20.3 RZEN037106
     K24N00L pC2024 07 04.90711020 10 28.57 -04 56 13.3          21.2 GVEN037L01
     K24N00L KC2024 07 04.90963620 10 28.21 -04 56 02.0          21.2 GVEN037L01
     K24N00L KB2024 07 04.91057 20 10 28.00 -04 55 56.5          20.9 RZEN037106
     K24N00L bC2024 07 04.91216120 10 27.86 -04 55 50.2          20.9 GVEN037L01
     K24N00L KB2024 07 04.91861 20 10 26.86 -04 55 21.0          20.6 RZEN037106
     K24N00L KB2024 07 04.92665 20 10 25.61 -04 54 43.4          20.1 RZEN037106
     K24N00L KB2024 07 04.96479120 10 20.12 -04 51 49.3          20.1 GXEN037958
     K24N00L KB2024 07 04.97097920 10 19.11 -04 51 20.6          19.6 GXEN037958
     K24N00L KB2024 07 04.97712120 10 18.22 -04 50 52.2          19.9 GXEN037958
Observer details:
106 Crni Vrh.  Observer H. Mikuz.  0.60-m f/3.3 reflector + CMO.
958 Observatoire de Dax.  Observer P. Dupouy.  0.50-m f/4.5 Reflector + CMO.
F51 Pan-STARRS 1, Haleakala.  Observers J. Herman, T. Lowe, P. Minguez, A.
    Schultz, I. Smith.  Measurers K. Chambers, T. de Boer, J. Fairlamb, H.
    Gao, M. Huber, C.-C. Lin, E. Magnier, Y. Ramanjooloo, R. Wainscoat, R.
    Weryk.  1.8-m Ritchey-Chretien + CCD.
F52 Pan-STARRS 2, Haleakala.  Observers J. Herman, T. Lowe, P. Minguez, A.
    Schultz, I. Smith.  Measurers K. Chambers, T. de Boer, J. Fairlamb, H.
    Gao, M. Huber, C.-C. Lin, E. Magnier, Y. Ramanjooloo, R. Wainscoat, R.
    Weryk.  1.8-m Ritchey-Chretien + CCD.
L01 Visnjan Observatory, Tican.  Observers K. Korlevic, L. Poropat.  Measurer
    K. Korlevic.  1.0-m f/2.9 reflector + CCD.
T14 Canada-France-Hawaii Telescope, Maunakea.  Observers R. Wainscoat, H.
    Januszewski, V. Khatu.  Measurers R. Weryk, R. Wainscoat.  3.6-m f/4.1
    reflector + CCD.
Orbital elements:
2024 NL                                                  Earth MOID = 0.2967 AU
Epoch 2024 Mar. 31.0 TT = JDT 2460400.5                 MPC                     
M 273.61237              (2000.0)            P               Q                  
n   0.55789127     Peri.   50.63881     +0.79981615     +0.42031555             
a   1.4614019      Node   280.50238     -0.58978625     +0.68299313             
e   0.1350650      Incl.   25.83753     +0.11156301     +0.59737361             
P   1.77           H   21.99          G   0.15           U   6                  
Residuals in seconds of arc
240602 F51  0.0   0.2-    240628 F51  0.1+  0.2-    240704 L01  0.3-  0.4-
240612 F52  0.4+  0.3+    240703 F51  0.0   0.1+    240704 106  1.1-  1.1+
240612 F52  0.1+  0.3-    240703 F51  0.1+  0.0     240704 L01  0.2+  0.1-
240612 F52  0.3-  0.6+    240703 F51  0.1+  0.0     240704 106  0.2+  0.1-
240612 F52  0.2-  0.4-    240704 T14  0.1+  0.1+    240704 106  0.1-  0.7+
240616 F51  0.3-  0.1-    240704 T14  0.1+  0.1+    240704 958  0.1+  0.4-
240616 F51  0.0   0.1+    240704 T14  0.1+  0.2+    240704 958  0.8-  0.0
240616 F51  0.2-  0.1-    240704 106  0.5-  1.1+    240704 958  0.1-  0.3+
240628 F51  0.1-  0.1-    240704 L01  0.7-  0.1-
Ephemeris:
2024 NL                  a,e,i = 1.46, 0.14, 26                  q = 1.2640
Date    TT    R. A. (2000) Decl.     Delta      r    Elong.  Phase     V
2024 06 05    20 49 18.7 -33 34 05   0.4683  1.3510   127.3    36.7    22.5
...
2024 06 20    20 38 58.5 -21 56 10   0.3680  1.3264   142.3    28.0    21.7
...
2024 06 28    20 25 45.1 -13 24 10   0.3307  1.3145   150.5    22.4    21.3
...
2024 07 04    20 12 38.7 -06 04 54   0.3130  1.3062   154.5    19.6    21.0
2024 07 05    20 10 14.3 -04 48 51   0.3111  1.3049   154.8    19.4    21.0
2024 07 06    20 07 46.9 -03 32 23   0.3093  1.3036   155.0    19.3    21.0
...
2024 07 12    19 52 12.1 +04 05 05   0.3051  1.2962   153.2    20.7    21.0
...
2024 07 20    19 30 41.9 +13 23 44   0.3147  1.2873   145.3    26.7    21.2
...
2024 08 04    18 56 14.5 +25 31 43   0.3670  1.2743   128.1    38.8    21.9
A. U. Tomatic                (C) Copyright 2024 MPC           M.P.E.C. 2024-N37
    
    
More information about the Iaude
mailing list